Surface/Precipitation History
11/23/2014 10:48  to  11/24/2014 10:48
Change End Date:
Date/Time
(MST)
Sf
Temp Chem Water Layer Surface Precipitation
Sf Sub Frz Factor Pct Depth IcePct Cond Salin Type Intens Accum Rate
11/24/2014 10:40 Dry 44.1F 131F - 0 - - - - - None None - -
11/24/2014 10:35 Dry 42.8F 126F - 0 - - - - - None None - -
11/24/2014 10:25 Dry 41.5F 137F - 0 - - - - - None None - -
11/24/2014 10:21 Dry 41.4F 137F - 0 - - - - - None None - -
11/24/2014 10:15 Dry 39.2F 137F - 0 - - - - - None None - -
11/24/2014 10:10 Dry 37.6F 140F - 0 - - - - - None None - -
11/24/2014 10:05 Dry 36.3F 132F - 0 - - - - - None None - -
11/24/2014 09:55 Dry 34.2F 143F - 0 - - - - - None None - -
11/24/2014 09:51 Dry 32.7F 143F - 0 - - - - - None None - -
11/24/2014 09:45 Dry 31.6F 142F - 0 - - - - - None None - -
11/24/2014 09:40 Dry 32.7F 141F - 0 - - - - - None None - -
11/24/2014 09:35 Dry 32.9F 141F - 0 - - - - - None None - -
11/24/2014 09:25 Dry 32.0F 143F - 0 - - - - - None None - -
11/24/2014 09:21 Dry 31.5F 143F - 0 - - - - - None None - -
11/24/2014 09:15 Dry 31.3F 143F - 0 - - - - - None None - -
Date/Time
(MST)
Sf
Temp Chem Water Layer Surface Precipitation
Sf Sub Frz Factor Pct Depth IcePct Cond Salin Type Intens Accum Rate
11/24/2014 09:11 Dry 31.3F 147F - 0 - - - - - None None - -
11/24/2014 09:05 Dry 30.9F 146F - 0 - - - - - None None - -
11/24/2014 08:55 Dry 30.6F 142F - 0 - - - - - None None - -
11/24/2014 08:51 Dry 30.6F 145F - 0 - - - - - None None - -
11/24/2014 08:45 Dry 30.2F 140F - 0 - - - - - None None - -
11/24/2014 08:40 Dry 30.0F 135F - 0 - - - - - None None - -
11/24/2014 08:35 Dry 29.7F 129F - 0 - - - - - None None - -
11/24/2014 08:25 Dry 28.9F 114F - 0 - - - - - None None - -
11/24/2014 08:21 Dry 28.9F 118F - 0 - - - - - None None - -
11/24/2014 08:15 Dry 28.8F 90F - 0 - - - - - None None - -
11/24/2014 08:11 Dry 28.8F 99F - 0 - - - - - None None - -
11/24/2014 08:04 Dry 28.2F 97F - 0 - - - - - None None - -
11/24/2014 07:54 Dry 28.0F 91F - 0 - - - - - None None - -
11/24/2014 07:51 Dry 27.7F 87F - 0 - - - - - None None - -
11/24/2014 07:44 Dry 27.1F 77F - 0 - - - - - None None - -
Date/Time
(MST)
Sf
Temp Chem Water Layer Surface Precipitation
Sf Sub Frz Factor Pct Depth IcePct Cond Salin Type Intens Accum Rate
11/24/2014 07:40 Dry 27.3F 97F - 0 - - - - - None None - -
11/24/2014 07:34 Dry 27.3F 96F - 0 - - - - - None None - -
11/24/2014 07:24 Dry 27.7F 99F - 0 - - - - - None None - -
11/24/2014 07:20 Dry 28.0F 96F - 0 - - - - - None None - -
11/24/2014 07:14 Dry 28.0F 96F - 0 - - - - - None None - -
11/24/2014 07:10 Dry 28.2F 90F - 0 - - - - - None None - -
11/24/2014 07:04 Dry 28.2F 81F - 0 - - - - - None None - -
11/24/2014 06:54 Dry 28.0F 96F - 0 - - - - - None None - -
11/24/2014 06:51 Dry 28.2F 97F - 0 - - - - - None None - -
11/24/2014 06:44 Dry 28.2F 97F - 0 - - - - - None None - -
11/24/2014 06:40 Dry 28.2F 94F - 0 - - - - - None None - -
11/24/2014 06:34 Dry 28.2F 91F - 0 - - - - - None None - -
11/24/2014 06:24 Dry 27.9F 91F - 0 - - - - - None None - -
11/24/2014 06:21 Dry 27.9F 85F - 0 - - - - - None None - -
11/24/2014 06:14 Dry 27.7F 92F - 0 - - - - - None None - -
Date/Time
(MST)
Sf
Temp Chem Water Layer Surface Precipitation
Sf Sub Frz Factor Pct Depth IcePct Cond Salin Type Intens Accum Rate
11/24/2014 06:11 Dry 27.5F 91F - 0 - - - - - None None - -
11/24/2014 06:04 Dry 27.1F 88F - 0 - - - - - None None - -
11/24/2014 05:54 Dry 27.1F 96F - 0 - - - - - None None - -
11/24/2014 05:51 Dry 27.1F 95F - 0 - - - - - None None - -
11/24/2014 05:44 Dry 27.5F 90F - 0 - - - - - None None - -
11/24/2014 05:40 Dry 27.9F 87F - 0 - - - - - None None - -
11/24/2014 05:34 Dry 28.2F 83F - 0 - - - - - None None - -
11/24/2014 05:24 Dry 28.8F 83F - 0 - - - - - None None - -
11/24/2014 05:21 Dry 28.9F 80F - 0 - - - - - None None - -
11/24/2014 05:14 Dry 28.9F 101F - 0 - - - - - None None - -
11/24/2014 05:11 Dry 29.3F 65F - 0 - - - - - None None - -
11/24/2014 05:03 Dry 29.3F 81F - 0 - - - - - None None - -
11/24/2014 04:53 Dry 29.3F 81F - 0 - - - - - None None - -
11/24/2014 04:51 Dry 29.3F 73F - 0 - - - - - None None - -
11/24/2014 04:43 Dry 29.5F 99F - 0 - - - - - None None - -
Date/Time
(MST)
Sf
Temp Chem Water Layer Surface Precipitation
Sf Sub Frz Factor Pct Depth IcePct Cond Salin Type Intens Accum Rate
11/24/2014 04:40 Dry 29.3F 123F - 0 - - - - - None None - -
11/24/2014 04:33 Dry 29.7F 115F - 0 - - - - - None None - -
11/24/2014 04:23 Dry 29.8F 118F - 0 - - - - - None None - -
11/24/2014 04:21 Dry 29.8F 109F - 0 - - - - - None None - -
11/24/2014 04:13 Dry 29.8F 107F - 0 - - - - - None None - -
11/24/2014 04:11 Dry 30.0F 104F - 0 - - - - - None None - -
11/24/2014 04:03 Dry 29.8F 70F - 0 - - - - - None None - -
11/24/2014 03:53 Dry 29.7F 73F - 0 - - - - - None None - -
11/24/2014 03:51 Dry 29.7F 97F - 0 - - - - - None None - -
11/24/2014 03:43 Dry 29.7F 84F - 0 - - - - - None None - -
11/24/2014 03:41 Dry 29.7F 76F - 0 - - - - - None None - -
11/24/2014 03:33 Dry 29.3F 109F - 0 - - - - - None None - -
11/24/2014 03:23 Dry 29.1F 95F - 0 - - - - - None None - -
11/24/2014 03:21 Dry 29.1F 109F - 0 - - - - - None None - -
11/24/2014 03:13 Dry 28.8F 131F - 0 - - - - - None None - -
Date/Time
(MST)
Sf
Temp Chem Water Layer Surface Precipitation
Sf Sub Frz Factor Pct Depth IcePct Cond Salin Type Intens Accum Rate
11/24/2014 03:10 Dry 28.8F 107F - 0 - - - - - None None - -
11/24/2014 03:03 Dry 28.8F 114F - 0 - - - - - None None - -
11/24/2014 02:53 Dry 28.8F 102F - 0 - - - - - None None - -
11/24/2014 02:51 Dry 28.8F 134F - 0 - - - - - None None - -
11/24/2014 02:43 Dry 28.8F 123F - 0 - - - - - None None - -
11/24/2014 02:40 Dry 28.8F 128F - 0 - - - - - None None - -
11/24/2014 02:33 Dry 28.4F 92F - 0 - - - - - None None - -
11/24/2014 02:23 Dry 28.4F 131F - 0 - - - - - None None - -
11/24/2014 02:13 Dry 28.2F 130F - 0 - - - - - None None - -
11/24/2014 02:11 Dry 28.2F 131F - 0 - - - - - None None - -
11/24/2014 02:03 Dry 28.4F 124F - 0 - - - - - None None - -
11/24/2014 01:52 Dry 28.4F 111F - 0 - - - - - None None - -
11/24/2014 01:51 Dry 28.2F 114F - 0 - - - - - None None - -
11/24/2014 01:42 Dry 27.9F 118F - 0 - - - - - None None - -
11/24/2014 01:41 Dry 27.9F 120F - 0 - - - - - None None - -
Date/Time
(MST)
Sf
Temp Chem Water Layer Surface Precipitation
Sf Sub Frz Factor Pct Depth IcePct Cond Salin Type Intens Accum Rate
11/24/2014 01:32 Dry 27.7F 133F - 0 - - - - - None None - -
11/24/2014 01:22 Dry 27.1F 129F - 0 - - - - - None None - -
11/24/2014 01:21 Dry 27.1F 127F - 0 - - - - - None None - -
11/24/2014 01:12 Dry 27.0F 124F - 0 - - - - - None None - -
11/24/2014 01:11 Dry 27.1F 135F - 0 - - - - - None None - -
11/24/2014 01:02 Dry 27.5F 132F - 0 - - - - - None None - -
11/24/2014 00:52 Dry 27.1F 120F - 0 - - - - - None None - -
11/24/2014 00:51 Dry 27.1F 123F - 0 - - - - - None None - -
11/24/2014 00:42 Dry 27.3F 123F - 0 - - - - - None None - -
11/24/2014 00:40 Dry 27.7F 130F - 0 - - - - - None None - -
11/24/2014 00:32 Dry 27.5F 111F - 0 - - - - - None None - -
11/24/2014 00:22 Dry 27.5F 133F - 0 - - - - - None None - -
11/24/2014 00:21 Dry 27.5F 134F - 0 - - - - - None None - -
11/24/2014 00:12 Dry 27.9F 125F - 0 - - - - - None None - -
11/24/2014 00:02 Dry 28.4F 117F - 0 - - - - - None None - -
Date/Time
(MST)
Sf
Temp Chem Water Layer Surface Precipitation
Sf Sub Frz Factor Pct Depth IcePct Cond Salin Type Intens Accum Rate
11/23/2014 23:52 Dry 28.8F 108F - 0 - - - - - None None - -
11/23/2014 23:42 Dry 28.9F 105F - 0 - - - - - None None - -
11/23/2014 23:40 Dry 29.1F 81F - 0 - - - - - None None - -
11/23/2014 23:32 Dry 29.3F 109F - 0 - - - - - None None - -
11/23/2014 23:22 Dry 29.5F 100F - 0 - - - - - None None - -
11/23/2014 23:21 Dry 29.5F 92F - 0 - - - - - None None - -
11/23/2014 23:12 Dry 29.7F 107F - 0 - - - - - None None - -
11/23/2014 23:10 Dry 29.7F 102F - 0 - - - - - None None - -
11/23/2014 23:01 Dry 29.8F 102F - 0 - - - - - None None - -
11/23/2014 22:51 Dry 29.7F 116F - 0 - - - - - None None - -
11/23/2014 22:51 Dry 29.7F 96F - 0 - - - - - None None - -
11/23/2014 22:41 Dry 29.5F 121F - 0 - - - - - None None - -
11/23/2014 22:41 Dry 29.5F 109F - 0 - - - - - None None - -
11/23/2014 22:31 Dry 29.3F 104F - 0 - - - - - None None - -
11/23/2014 22:21 Dry 29.8F 99F - 0 - - - - - None None - -
Date/Time
(MST)
Sf
Temp Chem Water Layer Surface Precipitation
Sf Sub Frz Factor Pct Depth IcePct Cond Salin Type Intens Accum Rate
11/23/2014 22:21 Dry 29.8F 110F - 0 - - - - - None None - -
11/23/2014 22:11 Dry 29.3F 112F - 0 - - - - - None None - -
11/23/2014 22:10 Dry 29.3F 109F - 0 - - - - - None None - -
11/23/2014 22:01 Dry 29.5F 111F - 0 - - - - - None None - -
11/23/2014 21:51 Dry 29.3F 110F - 0 - - - - - None None - -
11/23/2014 21:50 Dry 29.3F 111F - 0 - - - - - None None - -
11/23/2014 21:41 Dry 29.3F 107F - 0 - - - - - None None - -
11/23/2014 21:40 Dry 29.3F 102F - 0 - - - - - None None - -
11/23/2014 21:31 Dry 29.5F 124F - 0 - - - - - None None - -
11/23/2014 21:21 Dry 29.7F 118F - 0 - - - - - None None - -
11/23/2014 21:21 Dry 29.7F 119F - 0 - - - - - None None - -
11/23/2014 21:11 Dry 29.8F 114F - 0 - - - - - None None - -
11/23/2014 21:10 Dry 30.0F 116F - 0 - - - - - None None - -
11/23/2014 21:01 Dry 30.0F 106F - 0 - - - - - None None - -
11/23/2014 20:51 Dry 30.6F 114F - 0 - - - - - None None - -
Date/Time
(MST)
Sf
Temp Chem Water Layer Surface Precipitation
Sf Sub Frz Factor Pct Depth IcePct Cond Salin Type Intens Accum Rate
11/23/2014 20:51 Dry 30.6F 115F - 0 - - - - - None None - -
11/23/2014 20:41 Dry 30.7F 117F - 0 - - - - - None None - -
11/23/2014 20:40 Dry 30.6F 118F - 0 - - - - - None None - -
11/23/2014 20:31 Dry 30.9F 113F - 0 - - - - - None None - -
11/23/2014 20:21 Dry 31.1F 111F - 0 - - - - - None None - -
11/23/2014 20:21 Dry 31.1F 111F - 0 - - - - - None None - -
11/23/2014 20:10 Dry 30.9F 83F - 0 - - - - - None None - -
11/23/2014 20:10 Dry 30.9F 83F - 0 - - - - - None None - -
11/23/2014 20:00 Dry 30.7F 87F - 0 - - - - - None None - -
11/23/2014 19:51 Dry 30.6F 123F - 0 - - - - - None None - -
11/23/2014 19:50 Dry 30.6F 122F - 0 - - - - - None None - -
11/23/2014 19:40 Dry 30.7F 115F - 0 - - - - - None None - -
11/23/2014 19:30 Dry 30.6F 98F - 0 - - - - - None None - -
11/23/2014 19:21 Dry 29.8F 101F - 0 - - - - - None None - -
11/23/2014 19:20 Dry 29.8F 104F - 0 - - - - - None None - -
Date/Time
(MST)
Sf
Temp Chem Water Layer Surface Precipitation
Sf Sub Frz Factor Pct Depth IcePct Cond Salin Type Intens Accum Rate
11/23/2014 19:10 Dry 29.3F 106F - 0 - - - - - None None - -
11/23/2014 19:10 Dry 29.3F 107F - 0 - - - - - None None - -
11/23/2014 19:00 Dry 28.9F 110F - 0 - - - - - None None - -
11/23/2014 18:51 Dry 28.8F 119F - 0 - - - - - None None - -
11/23/2014 18:50 Dry 28.9F 121F - 0 - - - - - None None - -
11/23/2014 18:40 Dry 28.6F 129F - 0 - - - - - None None - -
11/23/2014 18:40 Dry 28.4F 126F - 0 - - - - - None None - -
11/23/2014 18:30 Dry 28.2F 123F - 0 - - - - - None None - -
11/23/2014 18:21 Dry 28.2F 115F - 0 - - - - - None None - -
11/23/2014 18:20 Dry 28.2F 115F - 0 - - - - - None None - -
11/23/2014 18:10 Dry 28.4F 101F - 0 - - - - - None None - -
11/23/2014 18:10 Dry 28.6F 100F - 0 - - - - - None None - -
11/23/2014 18:00 Dry 28.9F 112F - 0 - - - - - None None - -
11/23/2014 17:51 Dry 28.9F 98F - 0 - - - - - None None - -
11/23/2014 17:50 Dry 28.8F 98F - 0 - - - - - None None - -
Date/Time
(MST)
Sf
Temp Chem Water Layer Surface Precipitation
Sf Sub Frz Factor Pct Depth IcePct Cond Salin Type Intens Accum Rate
11/23/2014 17:40 Dry 28.6F 83F - 0 - - - - - None None - -
11/23/2014 17:40 Dry 28.6F 83F - 0 - - - - - None None - -
11/23/2014 17:30 Dry 27.9F 83F - 0 - - - - - None None - -
11/23/2014 17:21 Dry 28.0F 77F - 0 - - - - - None None - -
11/23/2014 17:20 Dry 28.0F 79F - 0 - - - - - None None - -
11/23/2014 17:10 Dry 28.4F 83F - 0 - - - - - None None - -
11/23/2014 17:10 Dry 28.4F 81F - 0 - - - - - None None - -
11/23/2014 16:59 Dry 28.8F 83F - 0 - - - - - None None - -
11/23/2014 16:51 Dry 29.3F 83F - 0 - - - - - None None - -
11/23/2014 16:49 Dry 29.3F 86F - 0 - - - - - None None - -
11/23/2014 16:40 Dry 29.8F 79F - 0 - - - - - None None - -
11/23/2014 16:39 Dry 29.8F 84F - 0 - - - - - None None - -
11/23/2014 16:29 Dry 30.7F 84F - 0 - - - - - None None - -
11/23/2014 16:21 Dry 31.5F 88F - 0 - - - - - None None - -
11/23/2014 16:19 Dry 31.5F 85F - 0 - - - - - None None - -
Date/Time
(MST)
Sf
Temp Chem Water Layer Surface Precipitation
Sf Sub Frz Factor Pct Depth IcePct Cond Salin Type Intens Accum Rate
11/23/2014 16:11 Dry 32.4F 86F - 0 - - - - - None None - -
11/23/2014 16:09 Dry 32.5F 85F - 0 - - - - - None None - -
11/23/2014 15:59 Dry 33.6F 83F - 0 - - - - - None None - -
11/23/2014 15:51 Dry 34.3F 85F - 0 - - - - - None None - -
11/23/2014 15:49 Dry 34.7F 87F - 0 - - - - - None None - -
11/23/2014 15:40 Dry 35.6F 65F - 0 - - - - - None None - -
11/23/2014 15:39 Dry 35.8F 84F - 0 - - - - - None None - -
11/23/2014 15:29 Dry 36.5F 78F - 0 - - - - - None None - -
11/23/2014 15:21 Dry 37.4F 76F - 0 - - - - - None None - -
11/23/2014 15:19 Dry 37.6F 78F - 0 - - - - - None None - -
11/23/2014 15:11 Dry 38.3F 87F - 0 - - - - - None None - -
11/23/2014 15:09 Dry 38.5F 86F - 0 - - - - - None None - -
11/23/2014 14:59 Dry 39.0F 90F - 0 - - - - - None None - -
11/23/2014 14:51 Dry 39.6F 85F - 0 - - - - - None None - -
11/23/2014 14:49 Dry 39.7F 91F - 0 - - - - - None None - -
Date/Time
(MST)
Sf
Temp Chem Water Layer Surface Precipitation
Sf Sub Frz Factor Pct Depth IcePct Cond Salin Type Intens Accum Rate
11/23/2014 14:40 Dry 40.1F 86F - 0 - - - - - None None - -
11/23/2014 14:39 Dry 40.3F 92F - 0 - - - - - None None - -
11/23/2014 14:29 Dry 41.0F 88F - 0 - - - - - None None - -
11/23/2014 14:21 Dry 41.4F 86F - 0 - - - - - None None - -
11/23/2014 14:19 Dry 41.7F 89F - 0 - - - - - None None - -
11/23/2014 14:11 Dry 42.4F 87F - 0 - - - - - None None - -
11/23/2014 14:09 Dry 42.4F 86F - 0 - - - - - None None - -
11/23/2014 13:59 Dry 43.0F 96F - 0 - - - - - None None - -
11/23/2014 13:51 Dry 43.2F 95F - 0 - - - - - None None - -
11/23/2014 13:48 Dry 43.2F 97F - 0 - - - - - None None - -
11/23/2014 13:40 Dry 43.0F 89F - 0 - - - - - None None - -
11/23/2014 13:38 Dry 43.3F 87F - 0 - - - - - None None - -
11/23/2014 13:28 Dry 43.5F 99F - 0 - - - - - None None - -
11/23/2014 13:21 Dry 43.9F 97F - 0 - - - - - None None - -
11/23/2014 13:18 Dry 43.9F 99F - 0 - - - - - None None - -
Date/Time
(MST)
Sf
Temp Chem Water Layer Surface Precipitation
Sf Sub Frz Factor Pct Depth IcePct Cond Salin Type Intens Accum Rate
11/23/2014 13:10 Dry 43.9F 105F - 0 - - - - - None None - -
11/23/2014 13:08 Dry 43.9F 108F - 0 - - - - - None None - -
11/23/2014 12:58 Dry 44.1F 105F - 0 - - - - - None None - -
11/23/2014 12:51 Dry 44.1F 102F - 0 - - - - - None None - -
11/23/2014 12:48 Dry 43.9F 103F - 0 - - - - - None None - -
11/23/2014 12:40 Dry 44.1F 109F - 0 - - - - - None None - -
11/23/2014 12:38 Dry 44.1F 108F - 0 - - - - - None None - -
11/23/2014 12:28 Dry 44.1F 110F - 0 - - - - - None None - -
11/23/2014 12:21 Dry 43.9F 109F - 0 - - - - - None None - -
11/23/2014 12:18 Dry 43.7F 107F - 0 - - - - - None None - -
11/23/2014 12:10 Dry 43.5F 109F - 0 - - - - - None None - -
11/23/2014 12:08 Dry 43.3F 114F - 0 - - - - - None None - -
11/23/2014 11:58 Dry 43.3F 110F - 0 - - - - - None None - -
11/23/2014 11:51 Dry 42.6F 109F - 0 - - - - - None None - -
11/23/2014 11:48 Dry 42.6F 112F - 0 - - - - - None None - -
Date/Time
(MST)
Sf
Temp Chem Water Layer Surface Precipitation
Sf Sub Frz Factor Pct Depth IcePct Cond Salin Type Intens Accum Rate
11/23/2014 11:40 Dry 41.7F 105F - 0 - - - - - None None - -
11/23/2014 11:38 Dry 41.7F 105F - 0 - - - - - None None - -
11/23/2014 11:28 Dry 41.2F 86F - 0 - - - - - None None - -
11/23/2014 11:21 Dry 39.2F 79F - 0 - - - - - None None - -
11/23/2014 11:18 Dry 38.3F 67F - 0 - - - - - None None - -
11/23/2014 11:11 Dry 38.5F 89F - 0 - - - - - None None - -
11/23/2014 11:08 Dry 38.3F 92F - 0 - - - - - None None - -
11/23/2014 10:58 Dry 37.2F 69F - 0 - - - - - None None - -
11/23/2014 10:51 Dry 37.0F 79F - 0 - - - - - None None - -
Change End Date:
Copyright © 1998-2005 Surface Systems, Inc.
All Rights Reserved
Send comments about the data to:
SCAN Web ® is a registered trademark of Surface Systems, Inc.
SCAN Web Version 5.6